QPF
0.00 0.00 0.00 0.00 0.00 0.00 0.00 0.00 0.00 0.00 0.00 0.01 0.01 0.00 0.00 0.00 0.00 0.00 0.00 0.00 0.00 0.00 0.00 0.00 0.00 0.00 0.00 0.00 0.01 0.01 0.01 0.01 0.00 0.00 0.00 0.01 0.01 0.01 0.03 0.03 0.03 0.04 0.03
0.00 0.00 0.00 0.00 0.00 0.00 0.00 0.00 0.00 0.00 0.00 0.00 0.00 0.00 0.00 0.00 0.00 0.00 0.00 0.00 0.00 0.00 0.00 0.00 0.00 0.00 0.00 0.00 0.00 0.00 0.00 0.00 0.00 0.00 0.00 0.01 0.01 0.01 0.01 0.00 0.03 0.05 0.01
0.00 0.00 0.00 0.00 0.00 0.00 0.00 0.00 0.00 0.00 0.00 0.00 0.00 0.00 0.00 0.00 0.00 0.00 0.00 0.00 0.00 0.00 0.00 0.00 0.00 0.00 0.00 0.00 0.00 0.00 0.00 0.00 0.00 0.01 0.01 0.02 0.01 0.01 0.00 0.00 0.01 0.01 0.01
0.00 0.00 0.00 0.00 0.00 0.00 0.00 0.00 0.00 0.00 0.00 0.00 0.00 0.00 0.00 0.00 0.00 0.00 0.00 0.00 0.00 0.00 0.00 0.00 0.00 0.01 0.00 0.00 0.00 0.00 0.00 0.00 0.01 0.02 0.03 0.03 0.03 0.01 0.01 0.00 0.00 0.00 0.01
0.00 0.00 0.00 0.00 0.00 0.00 0.00 0.00 0.00 0.00 0.00 0.00 0.00 0.00 0.00 0.00 0.00 0.00 0.00 0.00 0.01 0.01 0.01 0.01 0.01 0.01 0.01 0.00 0.01 0.01 0.01 0.01 0.01 0.01 0.01 0.03 0.10 0.05 0.02 0.01 0.01 0.01 0.01
0.00 0.00 0.00 0.01 0.00 0.00 0.00 0.00 0.00 0.00 0.00 0.00 0.00 0.00 0.00 0.01 0.01 0.01 0.01 0.01 0.01 0.01 0.01 0.01 0.01 0.01 0.01 0.01 0.00 0.01 0.01 0.01 0.02 0.01 0.00 0.01 0.05 0.05 0.03 0.02 0.01 0.02 0.00
0.00 0.00 0.00 0.01 0.01 0.00 0.00 0.00 0.00 0.00 0.00 0.00 0.00 0.00 0.00 0.01 0.01 0.01 0.01 0.01 0.01 0.01 0.00 0.00 0.00 0.00 0.00 0.00 0.00 0.00 0.00 0.00 0.01 0.03 0.01 0.00 0.01 0.02 0.03 0.02 0.02 0.03 0.01
0.00 0.00 0.01 0.01 0.01 0.01 0.00 0.00 0.00 0.00 0.00 0.00 0.00 0.00 0.00 0.00 0.00 0.00 0.00 0.00 0.00 0.00 0.00 0.00 0.00 0.00 0.00 0.00 0.00 0.00 0.00 0.00 0.00 0.01 0.01 0.01 0.01 0.01 0.04 0.03 0.01 0.02 0.01
0.00 0.00 0.01 0.02 0.02 0.02 0.01 0.01 0.00 0.00 0.00 0.00 0.00 0.00 0.00 0.00 0.00 0.00 0.00 0.00 0.00 0.00 0.00 0.00 0.00 0.00 0.00 0.00 0.00 0.00 0.00 0.00 0.00 0.01 0.01 0.02 0.02 0.02 0.10 0.12 0.07 0.02 0.01
0.00 0.01 0.01 0.03 0.04 0.04 0.03 0.02 0.02 0.01 0.01 0.00 0.00 0.00 0.00 0.00 0.00 0.00 0.00 0.00 0.00 0.00 0.00 0.00 0.00 0.00 0.01 0.02 0.04 0.05 0.05 0.04 0.02 0.02 0.02 0.01 0.01 0.03 0.15 0.26 0.26 0.18 0.08
0.01 0.01 0.02 0.03 0.03 0.04 0.04 0.03 0.05 0.05 0.05 0.05 0.04 0.02 0.01 0.00 0.00 0.00 0.00 0.00 0.00 0.00 0.01 0.01 0.01 0.02 0.04 0.05 0.07 0.12 0.14 0.10 0.08 0.08 0.09 0.06 0.06 0.05 0.12 0.24 0.30 0.33 0.28
0.00 0.01 0.01 0.02 0.02 0.03 0.02 0.03 0.06 0.08 0.10 0.10 0.10 0.10 0.08 0.06 0.04 0.02 0.01 0.01 0.01 0.02 0.02 0.02 0.03 0.06 0.08 0.10 0.12 0.12 0.08 0.07 0.09 0.08 0.07 0.09 0.08 0.06 0.07 0.17 0.23 0.27 0.30
0.00 0.00 0.01 0.01 0.01 0.01 0.02 0.02 0.05 0.08 0.10 0.10 0.12 0.15 0.18 0.18 0.14 0.11 0.09 0.05 0.03 0.03 0.05 0.06 0.09 0.08 0.09 0.13 0.16 0.13 0.08 0.05 0.03 0.03 0.02 0.05 0.08 0.07 0.08 0.14 0.16 0.19 0.25
0.01 0.01 0.03 0.03 0.02 0.01 0.02 0.04 0.06 0.08 0.11 0.12 0.15 0.18 0.21 0.18 0.15 0.16 0.14 0.12 0.09 0.08 0.08 0.08 0.10 0.11 0.12 0.16 0.17 0.14 0.10 0.07 0.04 0.02 0.02 0.04 0.11 0.12 0.13 0.15 0.15 0.13 0.16
0.02 0.03 0.03 0.04 0.02 0.02 0.03 0.05 0.07 0.10 0.12 0.14 0.17 0.17 0.16 0.15 0.12 0.13 0.10 0.10 0.10 0.12 0.13 0.14 0.14 0.15 0.16 0.15 0.13 0.10 0.08 0.11 0.10 0.09 0.05 0.05 0.13 0.18 0.14 0.12 0.12 0.13 0.16
0.02 0.02 0.02 0.02 0.02 0.01 0.03 0.05 0.08 0.10 0.12 0.13 0.13 0.14 0.16 0.15 0.14 0.15 0.13 0.14 0.14 0.16 0.21 0.26 0.24 0.24 0.22 0.18 0.12 0.09 0.08 0.11 0.12 0.13 0.08 0.08 0.08 0.11 0.10 0.09 0.09 0.10 0.15
0.01 0.01 0.01 0.01 0.01 0.02 0.03 0.06 0.09 0.12 0.13 0.14 0.15 0.17 0.19 0.19 0.20 0.22 0.20 0.17 0.16 0.18 0.21 0.25 0.28 0.28 0.24 0.19 0.17 0.16 0.14 0.14 0.11 0.12 0.10 0.09 0.07 0.04 0.03 0.03 0.04 0.04 0.06
0.02 0.01 0.01 0.01 0.02 0.03 0.05 0.07 0.10 0.13 0.15 0.16 0.18 0.19 0.20 0.21 0.22 0.22 0.19 0.16 0.16 0.15 0.14 0.16 0.19 0.19 0.19 0.22 0.24 0.24 0.21 0.21 0.15 0.13 0.10 0.08 0.06 0.03 0.01 0.01 0.01 0.01 0.01
0.02 0.01 0.01 0.01 0.01 0.03 0.04 0.05 0.06 0.07 0.10 0.14 0.17 0.15 0.16 0.19 0.21 0.21 0.19 0.15 0.11 0.09 0.08 0.07 0.08 0.09 0.10 0.13 0.16 0.20 0.19 0.16 0.12 0.07 0.05 0.03 0.02 0.01 0.01 0.01 0.00 0.00 0.00
0.01 0.00 0.00 0.00 0.01 0.02 0.03 0.03 0.04 0.05 0.07 0.09 0.11 0.12 0.13 0.15 0.18 0.19 0.16 0.12 0.08 0.06 0.05 0.04 0.04 0.04 0.05 0.05 0.04 0.05 0.06 0.06 0.05 0.03 0.01 0.00 0.00 0.00 0.00 0.00 0.00 0.00 0.00
0.00 0.00 0.00 0.00 0.01 0.01 0.01 0.01 0.03 0.04 0.06 0.06 0.07 0.08 0.09 0.12 0.14 0.16 0.14 0.12 0.08 0.06 0.04 0.03 0.02 0.02 0.02 0.02 0.02 0.02 0.02 0.02 0.01 0.01 0.00 0.00 0.00 0.00 0.00 0.00 0.00 0.00 0.00
0.00 0.00 0.00 0.00 0.00 0.00 0.01 0.01 0.02 0.02 0.03 0.03 0.04 0.04 0.04 0.05 0.09 0.11 0.13 0.10 0.08 0.07 0.05 0.03 0.03 0.02 0.01 0.01 0.01 0.01 0.01 0.00 0.00 0.00 0.00 0.00 0.00 0.00 0.00 0.00 0.00 0.00 0.00
0.00 0.00 0.00 0.00 0.01 0.01 0.01 0.01 0.01 0.01 0.02 0.03 0.03 0.04 0.04 0.03 0.04 0.08 0.11 0.11 0.09 0.06 0.06 0.05 0.04 0.03 0.02 0.01 0.01 0.00 0.00 0.00 0.00 0.00 0.00 0.00 0.00 0.00 0.00 0.00 0.00 0.00 0.00
0.00 0.00 0.00 0.00 0.00 0.01 0.01 0.01 0.00 0.00 0.00 0.01 0.01 0.02 0.03 0.03 0.04 0.05 0.06 0.08 0.10 0.09 0.09 0.05 0.04 0.03 0.02 0.01 0.01 0.00 0.00 0.00 0.00 0.00 0.00 0.00 0.00 0.00 0.00 0.00 0.00 0.00 0.00
0.00 0.00 0.00 0.00 0.00 0.00 0.00 0.00 0.00 0.00 0.00 0.00 0.00 0.01 0.01 0.01 0.03 0.04 0.07 0.08 0.07 0.09 0.09 0.08 0.06 0.04 0.03 0.01 0.01 0.00 0.00 0.00 0.00 0.00 0.00 0.00 0.00 0.00 0.00 0.00 0.00 0.00 0.00
0.00 0.00 0.00 0.00 0.00 0.00 0.00 0.00 0.00 0.00 0.00 0.00 0.00 0.00 0.00 0.01 0.01 0.02 0.05 0.08 0.10 0.10 0.09 0.08 0.06 0.05 0.04 0.02 0.01 0.00 0.00 0.00 0.00 0.00 0.00 0.00 0.00 0.00 0.00 0.00 0.00 0.00 0.01
MSLP
1009.08 1009.42 1009.97 1010.66 1011.36 1011.97 1012.42 1012.68 1012.76 1012.74 1012.70 1012.74 1012.90 1013.19 1013.60 1014.05 1014.49 1014.86 1015.12 1015.27 1015.35 1015.39 1015.45 1015.53 1015.66 1015.83 1016.01 1016.17 1016.29 1016.38 1016.42 1016.44 1016.47 1016.52 1016.60 1016.72 1016.85 1017.00 1017.15 1017.28 1017.39 1017.49 1017.58
1009.23 1009.63 1010.23 1010.94 1011.66 1012.29 1012.74 1012.99 1013.06 1013.02 1012.96 1012.97 1013.09 1013.35 1013.72 1014.15 1014.56 1014.90 1015.14 1015.29 1015.37 1015.43 1015.50 1015.62 1015.79 1015.99 1016.20 1016.38 1016.52 1016.59 1016.62 1016.61 1016.62 1016.65 1016.72 1016.85 1017.01 1017.20 1017.38 1017.55 1017.69 1017.80 1017.89
1009.38 1009.82 1010.44 1011.17 1011.91 1012.55 1013.02 1013.29 1013.38 1013.35 1013.29 1013.28 1013.37 1013.59 1013.89 1014.25 1014.60 1014.89 1015.09 1015.22 1015.30 1015.38 1015.49 1015.66 1015.88 1016.13 1016.37 1016.57 1016.70 1016.76 1016.75 1016.71 1016.67 1016.68 1016.74 1016.88 1017.07 1017.29 1017.52 1017.74 1017.92 1018.06 1018.17
1009.50 1009.97 1010.60 1011.33 1012.07 1012.73 1013.23 1013.53 1013.67 1013.68 1013.64 1013.63 1013.70 1013.86 1014.10 1014.38 1014.64 1014.86 1015.02 1015.12 1015.21 1015.31 1015.47 1015.69 1015.96 1016.26 1016.53 1016.74 1016.86 1016.88 1016.83 1016.74 1016.66 1016.63 1016.68 1016.82 1017.04 1017.30 1017.58 1017.85 1018.08 1018.27 1018.42
1009.59 1010.05 1010.67 1011.39 1012.13 1012.80 1013.32 1013.67 1013.86 1013.93 1013.93 1013.94 1014.00 1014.13 1014.31 1014.51 1014.70 1014.85 1014.96 1015.04 1015.13 1015.26 1015.46 1015.72 1016.05 1016.38 1016.67 1016.88 1016.98 1016.97 1016.87 1016.74 1016.61 1016.55 1016.59 1016.73 1016.96 1017.25 1017.58 1017.90 1018.18 1018.42 1018.61
1009.63 1010.07 1010.66 1011.35 1012.07 1012.73 1013.28 1013.67 1013.91 1014.03 1014.09 1014.13 1014.20 1014.32 1014.46 1014.61 1014.75 1014.85 1014.92 1014.99 1015.08 1015.23 1015.45 1015.76 1016.11 1016.46 1016.76 1016.97 1017.04 1017.00 1016.87 1016.70 1016.55 1016.46 1016.49 1016.63 1016.87 1017.18 1017.54 1017.89 1018.21 1018.50 1018.74
1009.63 1010.03 1010.58 1011.22 1011.90 1012.54 1013.08 1013.49 1013.77 1013.94 1014.05 1014.14 1014.25 1014.37 1014.51 1014.65 1014.76 1014.84 1014.89 1014.95 1015.04 1015.20 1015.44 1015.76 1016.12 1016.48 1016.77 1016.96 1017.02 1016.97 1016.82 1016.63 1016.47 1016.38 1016.40 1016.54 1016.79 1017.11 1017.46 1017.83 1018.17 1018.48 1018.76
1009.62 1009.97 1010.46 1011.05 1011.66 1012.25 1012.75 1013.15 1013.44 1013.64 1013.80 1013.94 1014.09 1014.25 1014.42 1014.57 1014.69 1014.77 1014.82 1014.88 1014.97 1015.14 1015.38 1015.68 1016.03 1016.37 1016.65 1016.83 1016.88 1016.83 1016.69 1016.52 1016.37 1016.30 1016.33 1016.48 1016.72 1017.03 1017.37 1017.72 1018.06 1018.37 1018.66
1009.63 1009.94 1010.37 1010.87 1011.41 1011.91 1012.35 1012.70 1012.97 1013.18 1013.36 1013.54 1013.74 1013.96 1014.17 1014.36 1014.51 1014.61 1014.68 1014.75 1014.84 1014.99 1015.21 1015.49 1015.81 1016.12 1016.38 1016.54 1016.60 1016.56 1016.46 1016.33 1016.23 1016.19 1016.25 1016.41 1016.64 1016.93 1017.25 1017.57 1017.88 1018.17 1018.45
1009.73 1009.99 1010.35 1010.77 1011.20 1011.60 1011.94 1012.21 1012.43 1012.61 1012.80 1013.01 1013.26 1013.52 1013.78 1014.02 1014.21 1014.35 1014.45 1014.52 1014.61 1014.74 1014.93 1015.17 1015.45 1015.72 1015.95 1016.10 1016.17 1016.16 1016.11 1016.04 1016.00 1016.02 1016.12 1016.30 1016.54 1016.81 1017.09 1017.37 1017.63 1017.89 1018.15
1009.94 1010.17 1010.46 1010.78 1011.10 1011.37 1011.59 1011.76 1011.91 1012.05 1012.22 1012.44 1012.71 1013.01 1013.32 1013.60 1013.83 1014.00 1014.12 1014.20 1014.28 1014.39 1014.54 1014.74 1014.96 1015.19 1015.39 1015.54 1015.62 1015.65 1015.65 1015.64 1015.67 1015.76 1015.91 1016.12 1016.36 1016.62 1016.88 1017.12 1017.34 1017.56 1017.80
1010.31 1010.50 1010.72 1010.94 1011.13 1011.28 1011.37 1011.43 1011.48 1011.56 1011.69 1011.90 1012.18 1012.50 1012.83 1013.14 1013.39 1013.59 1013.71 1013.79 1013.86 1013.95 1014.07 1014.22 1014.41 1014.60 1014.77 1014.90 1015.00 1015.05 1015.10 1015.15 1015.24 1015.39 1015.58 1015.82 1016.09 1016.35 1016.59 1016.81 1017.00 1017.20 1017.41
1010.83 1010.97 1011.12 1011.23 1011.30 1011.32 1011.29 1011.24 1011.20 1011.21 1011.30 1011.48 1011.74 1012.05 1012.38 1012.68 1012.94 1013.13 1013.26 1013.34 1013.40 1013.47 1013.56 1013.69 1013.84 1013.99 1014.14 1014.26 1014.35 1014.43 1014.49 1014.58 1014.71 1014.90 1015.13 1015.40 1015.68 1015.95 1016.20 1016.42 1016.61 1016.79 1016.99
1011.44 1011.53 1011.60 1011.62 1011.58 1011.48 1011.34 1011.19 1011.07 1011.02 1011.06 1011.20 1011.42 1011.69 1011.99 1012.27 1012.50 1012.67 1012.78 1012.85 1012.91 1012.97 1013.06 1013.17 1013.30 1013.44 1013.57 1013.67 1013.75 1013.82 1013.88 1013.97 1014.11 1014.31 1014.55 1014.84 1015.14 1015.43 1015.70 1015.94 1016.15 1016.34 1016.55
1012.09 1012.12 1012.10 1012.03 1011.89 1011.69 1011.47 1011.25 1011.08 1010.98 1010.97 1011.06 1011.22 1011.44 1011.67 1011.90 1012.08 1012.21 1012.30 1012.36 1012.42 1012.48 1012.58 1012.70 1012.83 1012.97 1013.08 1013.17 1013.22 1013.26 1013.30 1013.36 1013.47 1013.65 1013.88 1014.16 1014.47 1014.79 1015.09 1015.35 1015.59 1015.82 1016.04
1012.69 1012.64 1012.54 1012.38 1012.16 1011.90 1011.63 1011.37 1011.17 1011.03 1010.98 1011.02 1011.12 1011.26 1011.41 1011.55 1011.66 1011.75 1011.80 1011.86 1011.92 1012.01 1012.13 1012.28 1012.44 1012.58 1012.69 1012.76 1012.79 1012.78 1012.77 1012.78 1012.84 1012.96 1013.16 1013.41 1013.72 1014.04 1014.36 1014.66 1014.94 1015.20 1015.45
1013.16 1013.03 1012.86 1012.63 1012.35 1012.06 1011.77 1011.50 1011.28 1011.13 1011.05 1011.03 1011.06 1011.11 1011.17 1011.22 1011.25 1011.27 1011.30 1011.35 1011.43 1011.55 1011.71 1011.90 1012.09 1012.25 1012.37 1012.43 1012.42 1012.38 1012.31 1012.26 1012.25 1012.31 1012.44 1012.65 1012.93 1013.24 1013.56 1013.89 1014.20 1014.49 1014.76
1013.46 1013.26 1013.02 1012.75 1012.45 1012.14 1011.86 1011.60 1011.39 1011.24 1011.13 1011.05 1011.00 1010.96 1010.92 1010.88 1010.83 1010.80 1010.79 1010.84 1010.94 1011.10 1011.30 1011.53 1011.76 1011.96 1012.09 1012.14 1012.12 1012.04 1011.93 1011.81 1011.73 1011.72 1011.79 1011.94 1012.17 1012.45 1012.76 1013.08 1013.40 1013.71 1014.00
1013.60 1013.34 1013.06 1012.76 1012.45 1012.16 1011.90 1011.68 1011.49 1011.33 1011.19 1011.07 1010.95 1010.81 1010.68 1010.54 1010.42 1010.34 1010.31 1010.36 1010.48 1010.67 1010.92 1011.19 1011.45 1011.67 1011.81 1011.87 1011.84 1011.74 1011.60 1011.45 1011.32 1011.25 1011.25 1011.34 1011.51 1011.74 1012.01 1012.31 1012.61 1012.91 1013.21
1013.61 1013.32 1013.01 1012.71 1012.42 1012.16 1011.93 1011.74 1011.57 1011.42 1011.26 1011.08 1010.89 1010.68 1010.46 1010.25 1010.07 1009.95 1009.90 1009.95 1010.09 1010.30 1010.57 1010.86 1011.14 1011.37 1011.53 1011.59 1011.57 1011.47 1011.32 1011.15 1011.00 1010.89 1010.85 1010.88 1010.98 1011.15 1011.37 1011.61 1011.88 1012.16 1012.44
1013.54 1013.24 1012.94 1012.66 1012.40 1012.18 1011.99 1011.83 1011.68 1011.52 1011.33 1011.12 1010.86 1010.58 1010.30 1010.03 1009.82 1009.67 1009.62 1009.66 1009.80 1010.02 1010.29 1010.58 1010.85 1011.08 1011.23 1011.30 1011.29 1011.21 1011.07 1010.92 1010.77 1010.65 1010.58 1010.57 1010.61 1010.72 1010.87 1011.05 1011.26 1011.49 1011.74
1013.47 1013.18 1012.91 1012.65 1012.43 1012.24 1012.09 1011.95 1011.81 1011.65 1011.44 1011.18 1010.88 1010.56 1010.23 1009.93 1009.70 1009.54 1009.48 1009.52 1009.65 1009.86 1010.10 1010.36 1010.60 1010.80 1010.93 1010.99 1010.99 1010.93 1010.83 1010.71 1010.59 1010.48 1010.41 1010.38 1010.38 1010.42 1010.51 1010.62 1010.77 1010.94 1011.15
1013.44 1013.18 1012.93 1012.71 1012.52 1012.36 1012.24 1012.11 1011.97 1011.80 1011.57 1011.29 1010.96 1010.61 1010.26 1009.95 1009.71 1009.56 1009.50 1009.53 1009.65 1009.82 1010.01 1010.22 1010.40 1010.54 1010.63 1010.68 1010.68 1010.64 1010.58 1010.50 1010.43 1010.36 1010.30 1010.25 1010.23 1010.23 1010.26 1010.31 1010.40 1010.53 1010.69
1013.47 1013.24 1013.02 1012.82 1012.65 1012.51 1012.40 1012.28 1012.14 1011.95 1011.71 1011.41 1011.06 1010.70 1010.36 1010.06 1009.83 1009.69 1009.63 1009.66 1009.74 1009.87 1010.00 1010.13 1010.23 1010.31 1010.35 1010.36 1010.35 1010.33 1010.30 1010.27 1010.24 1010.21 1010.17 1010.14 1010.11 1010.08 1010.07 1010.08 1010.13 1010.21 1010.35
1013.54 1013.33 1013.12 1012.93 1012.77 1012.64 1012.52 1012.40 1012.25 1012.05 1011.80 1011.49 1011.14 1010.79 1010.46 1010.18 1009.97 1009.84 1009.80 1009.81 1009.87 1009.94 1010.01 1010.06 1010.09 1010.09 1010.07 1010.04 1010.02 1010.01 1010.00 1010.01 1010.01 1010.01 1010.00 1009.98 1009.94 1009.91 1009.88 1009.87 1009.90 1009.97 1010.09
1013.61 1013.40 1013.19 1013.00 1012.83 1012.69 1012.56 1012.43 1012.26 1012.06 1011.79 1011.48 1011.14 1010.80 1010.49 1010.23 1010.05 1009.93 1009.89 1009.89 1009.92 1009.95 1009.96 1009.95 1009.91 1009.85 1009.78 1009.73 1009.69 1009.67 1009.68 1009.71 1009.74 1009.76 1009.76 1009.75 1009.72 1009.68 1009.65 1009.65 1009.68 1009.76 1009.88
Thickness
5849 5842 5826 5821 5817 5814 5812 5811 5809 5808 5805 5802 5799 5795 5792 5788 5785 5782 5780 5777 5775 5773 5771 5769 5767 5765 5763 5761 5760 5758 5757 5756 5755 5753 5752 5750 5749 5748 5747 5746 5747 5748 5744
5850 5839 5824 5819 5816 5813 5810 5808 5806 5804 5802 5799 5797 5793 5790 5786 5784 5781 5778 5776 5773 5771 5769 5767 5765 5762 5760 5759 5758 5757 5756 5754 5753 5752 5751 5749 5748 5746 5746 5745 5745 5746 5742
5846 5835 5823 5817 5813 5810 5807 5804 5802 5800 5798 5795 5793 5790 5787 5784 5782 5780 5777 5775 5772 5770 5768 5765 5763 5760 5758 5756 5755 5754 5753 5753 5752 5751 5750 5753 5749 5745 5744 5743 5743 5742 5740
5843 5833 5823 5814 5810 5807 5804 5801 5799 5796 5794 5792 5790 5788 5785 5783 5780 5777 5775 5773 5771 5769 5766 5764 5762 5759 5756 5754 5753 5752 5751 5751 5750 5750 5752 5754 5751 5745 5743 5741 5741 5740 5739
5840 5831 5820 5812 5808 5804 5801 5798 5796 5793 5791 5789 5787 5785 5783 5780 5778 5775 5773 5771 5769 5767 5765 5762 5760 5758 5755 5753 5751 5750 5749 5749 5749 5750 5754 5752 5749 5744 5742 5741 5739 5738 5737
5836 5829 5818 5811 5806 5802 5798 5796 5793 5790 5788 5785 5783 5781 5779 5777 5775 5773 5771 5768 5767 5765 5762 5761 5758 5756 5754 5752 5750 5749 5748 5748 5748 5755 5754 5752 5750 5745 5742 5740 5739 5738 5736
5834 5829 5817 5809 5805 5801 5797 5794 5791 5788 5785 5782 5779 5777 5775 5774 5772 5770 5768 5766 5764 5761 5759 5758 5756 5754 5752 5751 5749 5747 5747 5747 5750 5754 5754 5752 5750 5744 5742 5740 5739 5737 5735
5831 5826 5815 5807 5803 5799 5796 5792 5788 5785 5781 5779 5776 5773 5771 5769 5768 5766 5764 5762 5760 5758 5756 5754 5752 5751 5749 5748 5747 5746 5745 5745 5749 5753 5753 5753 5749 5744 5741 5739 5738 5736 5734
5828 5823 5814 5808 5802 5797 5793 5789 5785 5781 5778 5775 5772 5769 5767 5764 5762 5761 5759 5757 5756 5754 5752 5750 5749 5747 5746 5745 5745 5744 5743 5743 5747 5753 5753 5751 5747 5743 5740 5738 5737 5735 5734
5823 5821 5814 5810 5805 5800 5794 5787 5783 5779 5775 5771 5767 5764 5761 5758 5756 5755 5754 5753 5751 5750 5748 5747 5745 5744 5743 5743 5742 5741 5741 5741 5745 5752 5752 5750 5745 5740 5738 5737 5736 5734 5733
5815 5815 5814 5811 5805 5800 5796 5788 5780 5775 5771 5767 5763 5760 5757 5757 5757 5753 5752 5751 5748 5747 5746 5745 5743 5743 5742 5742 5741 5740 5739 5741 5746 5748 5748 5745 5741 5737 5735 5735 5734 5733 5732
5809 5811 5810 5809 5803 5798 5794 5787 5778 5773 5768 5764 5762 5758 5755 5755 5755 5754 5751 5747 5745 5744 5743 5743 5742 5741 5740 5743 5742 5739 5741 5742 5743 5743 5742 5739 5736 5734 5732 5732 5732 5732 5731
5808 5806 5805 5802 5797 5795 5790 5785 5778 5771 5765 5761 5758 5755 5752 5750 5747 5746 5745 5743 5742 5742 5743 5744 5742 5742 5743 5743 5742 5741 5741 5742 5742 5742 5743 5739 5735 5732 5730 5730 5730 5730 5729
5801 5798 5796 5792 5787 5783 5780 5778 5771 5766 5761 5757 5754 5750 5747 5745 5743 5741 5740 5740 5741 5742 5742 5743 5742 5742 5742 5741 5740 5740 5739 5738 5739 5740 5740 5738 5734 5731 5730 5729 5728 5728 5728
5789 5786 5783 5780 5776 5773 5770 5767 5765 5760 5756 5753 5748 5745 5743 5741 5740 5739 5737 5737 5739 5740 5740 5739 5739 5739 5739 5738 5738 5738 5737 5737 5737 5737 5738 5736 5734 5732 5731 5731 5729 5729 5728
5775 5774 5773 5771 5769 5767 5764 5760 5757 5755 5751 5748 5745 5742 5739 5737 5736 5735 5734 5734 5735 5735 5735 5734 5734 5734 5733 5735 5737 5737 5737 5736 5736 5735 5736 5736 5735 5734 5733 5732 5731 5730 5729
5766 5767 5766 5766 5763 5760 5757 5755 5753 5750 5747 5744 5740 5737 5733 5731 5729 5728 5728 5728 5731 5731 5730 5729 5729 5729 5729 5731 5734 5736 5736 5736 5736 5736 5736 5736 5737 5736 5735 5733 5732 5731 5730
5760 5759 5758 5758 5755 5752 5750 5748 5748 5745 5741 5738 5734 5731 5727 5725 5723 5722 5722 5725 5727 5726 5726 5726 5726 5727 5726 5727 5729 5733 5735 5734 5734 5735 5735 5736 5738 5741 5738 5735 5733 5731 5730
5751 5749 5748 5747 5745 5745 5744 5743 5742 5739 5735 5733 5729 5726 5723 5721 5719 5717 5718 5721 5722 5723 5724 5724 5726 5724 5723 5724 5726 5729 5731 5731 5732 5735 5736 5738 5739 5738 5739 5736 5733 5731 5730
5743 5741 5739 5738 5736 5737 5738 5737 5735 5733 5731 5728 5725 5722 5719 5717 5715 5714 5715 5717 5718 5719 5718 5719 5719 5718 5718 5720 5724 5728 5729 5731 5732 5734 5735 5738 5738 5738 5737 5738 5735 5734 5731
5734 5731 5728 5726 5726 5726 5726 5725 5723 5722 5722 5721 5719 5716 5714 5713 5713 5712 5712 5711 5712 5713 5713 5715 5714 5713 5713 5716 5714 5716 5722 5728 5730 5731 5733 5735 5738 5737 5736 5737 5736 5738 5737
5724 5721 5720 5718 5716 5715 5713 5712 5711 5710 5712 5711 5709 5707 5706 5706 5707 5710 5708 5708 5708 5706 5706 5706 5705 5706 5709 5710 5708 5708 5711 5719 5723 5728 5730 5730 5732 5735 5736 5737 5736 5735 5736
5717 5714 5712 5708 5706 5704 5702 5704 5703 5702 5702 5701 5698 5698 5697 5697 5699 5700 5702 5703 5703 5702 5701 5699 5699 5697 5699 5704 5706 5704 5703 5708 5720 5724 5724 5726 5728 5731 5734 5736 5735 5736 5735
5711 5709 5705 5701 5697 5693 5691 5690 5687 5685 5685 5685 5685 5686 5686 5687 5688 5690 5691 5693 5694 5696 5695 5695 5696 5694 5692 5695 5700 5701 5703 5707 5705 5713 5718 5723 5724 5725 5730 5732 5735 5735 5735
5705 5702 5699 5694 5688 5684 5681 5677 5675 5676 5676 5678 5676 5675 5674 5677 5677 5677 5678 5680 5682 5686 5687 5688 5689 5689 5690 5690 5694 5697 5697 5697 5699 5701 5708 5714 5718 5723 5727 5728 5732 5736 5736
5698 5694 5691 5685 5680 5676 5672 5668 5664 5662 5661 5661 5661 5662 5664 5666 5666 5666 5665 5666 5668 5672 5675 5678 5680 5683 5684 5686 5688 5693 5694 5695 5697 5699 5701 5704 5710 5719 5723 5726 5730 5733 5734